TimeEST,TemperatureF,Dew PointF,Humidity,Sea Level PressureIn,VisibilityMPH,Wind Direction,Wind SpeedMPH,Gust SpeedMPH,PrecipitationIn,Events,Conditions,WindDirDegrees,DateUTC
12:26 AM,46.4,44.6,93,30.13,0.8,East,9.2,-,0.00,Rain,Light Rain,80,2013-02-11 05:26:00
12:53 AM,46.0,45.0,96,30.11,0.5,East,8.1,-,0.00,Fog,Fog,80,2013-02-11 05:53:00
1:39 AM,46.4,44.6,93,30.12,1.2,ENE,5.8,-,0.05,Rain,Light Rain,70,2013-02-11 06:39:00
1:49 AM,46.4,44.6,93,30.11,2.0,ENE,5.8,-,0.05,Rain,Light Rain,60,2013-02-11 06:49:00
1:53 AM,46.0,46.0,100,30.11,2.0,NE,8.1,-,0.05,Rain,Light Rain,40,2013-02-11 06:53:00
2:07 AM,46.4,46.4,100,30.11,1.5,ENE,6.9,-,0.00,Rain,Light Rain,70,2013-02-11 07:07:00
2:21 AM,46.4,46.4,100,30.10,0.8,East,6.9,-,0.01,Rain,Light Rain,90,2013-02-11 07:21:00
2:53 AM,46.9,46.0,97,30.09,0.8,East,8.1,-,0.02,Rain,Light Rain,90,2013-02-11 07:53:00
3:05 AM,46.4,46.4,100,30.10,1.0,NE,5.8,-,0.01,Rain,Light Rain,50,2013-02-11 08:05:00
3:19 AM,46.4,46.4,100,30.09,1.2,ENE,5.8,-,0.02,Rain,Light Rain,60,2013-02-11 08:19:00
3:30 AM,46.4,46.4,100,30.08,1.0,East,5.8,-,0.02,Rain,Light Rain,100,2013-02-11 08:30:00
3:49 AM,46.4,46.4,100,30.09,0.8,East,4.6,-,0.02,,Mist,80,2013-02-11 08:49:00
3:53 AM,46.9,46.9,100,30.09,0.8,ENE,4.6,-,0.02,,Mist,70,2013-02-11 08:53:00
4:13 AM,46.4,46.4,100,30.09,1.2,Calm,Calm,-,0.03,Rain,Light Rain,0,2013-02-11 09:13:00
4:23 AM,46.4,46.4,100,30.09,2.0,Calm,Calm,-,0.04,Rain,Rain,0,2013-02-11 09:23:00
4:36 AM,48.2,46.4,93,30.08,2.5,NE,4.6,-,0.07,Rain,Light Rain,50,2013-02-11 09:36:00
4:46 AM,48.2,46.4,93,30.08,4.0,NE,3.5,-,0.08,Rain,Light Rain,50,2013-02-11 09:46:00
4:53 AM,48.0,46.9,96,30.06,6.0,ENE,3.5,-,0.08,Rain,Light Rain,70,2013-02-11 09:53:00
5:39 AM,48.2,46.4,93,30.07,2.5,NNE,5.8,-,0.00,,Overcast,30,2013-02-11 10:39:00
5:41 AM,48.2,46.4,93,30.07,1.8,NE,5.8,-,0.00,,Overcast,40,2013-02-11 10:41:00
5:45 AM,48.2,46.4,93,30.07,1.0,NNE,4.6,-,0.00,Rain,Light Rain,20,2013-02-11 10:45:00
5:53 AM,48.0,46.9,96,30.07,1.2,NNE,4.6,-,0.00,Rain,Light Rain,20,2013-02-11 10:53:00
6:01 AM,48.2,46.4,93,30.06,2.0,NE,4.6,-,0.00,Rain,Light Rain,40,2013-02-11 11:01:00
6:13 AM,48.2,48.2,100,30.06,1.5,ENE,3.5,-,0.00,,Overcast,60,2013-02-11 11:13:00
6:21 AM,48.2,48.2,100,30.07,2.0,NE,3.5,-,0.00,,Overcast,50,2013-02-11 11:21:00
6:32 AM,48.2,48.2,100,30.08,1.5,NNE,3.5,-,0.00,,Overcast,30,2013-02-11 11:32:00
6:43 AM,48.2,48.2,100,30.09,2.0,NNE,3.5,-,0.00,,Overcast,30,2013-02-11 11:43:00
6:51 AM,48.2,48.2,100,30.09,2.5,Calm,Calm,-,0.00,,Overcast,0,2013-02-11 11:51:00
6:53 AM,48.9,48.0,97,30.08,2.5,NNE,3.5,-,0.00,,Overcast,30,2013-02-11 11:53:00
7:06 AM,48.2,48.2,100,30.10,2.0,Calm,Calm,-,N/A,,Overcast,0,2013-02-11 12:06:00
7:13 AM,48.2,48.2,100,30.10,1.5,Calm,Calm,-,N/A,,Overcast,0,2013-02-11 12:13:00
7:22 AM,48.2,48.2,100,30.10,0.8,Calm,Calm,-,N/A,,Overcast,0,2013-02-11 12:22:00
7:53 AM,48.9,48.9,100,30.09,0.5,Calm,Calm,-,N/A,Fog,Fog,0,2013-02-11 12:53:00
8:53 AM,50.0,48.9,96,30.09,0.2,NNW,6.9,-,0.02,Fog,Fog,340,2013-02-11 13:53:00
9:53 AM,50.0,48.9,96,30.09,0.2,SSE,3.5,-,0.01,Fog-Rain,Light Rain,150,2013-02-11 14:53:00
10:18 AM,50.0,50.0,100,30.11,0.8,Calm,Calm,-,0.05,Rain,Rain,0,2013-02-11 15:18:00
10:22 AM,50.0,50.0,100,30.11,1.2,Calm,Calm,-,0.05,Rain,Light Rain,0,2013-02-11 15:22:00
10:31 AM,51.8,50.0,94,30.10,2.0,Variable,4.6,-,0.06,Rain,Light Rain,0,2013-02-11 15:31:00
10:37 AM,51.8,50.0,94,30.13,3.0,NW,8.1,-,0.06,Rain,Light Rain,310,2013-02-11 15:37:00
10:49 AM,51.8,50.0,94,30.10,3.0,Calm,Calm,-,0.06,Rain,Light Rain,0,2013-02-11 15:49:00
10:53 AM,51.1,50.0,96,30.12,2.5,West,6.9,-,0.06,Rain,Light Rain,280,2013-02-11 15:53:00
11:01 AM,51.8,50.0,94,30.11,1.8,WSW,4.6,-,0.00,Rain,Light Rain,240,2013-02-11 16:01:00
11:07 AM,51.8,50.0,94,30.13,1.0,WSW,8.1,-,0.00,Rain,Light Rain,250,2013-02-11 16:07:00
11:23 AM,51.8,51.8,100,30.12,1.8,WSW,4.6,-,0.00,Rain,Light Rain,240,2013-02-11 16:23:00
11:25 AM,51.8,50.0,94,30.12,2.5,WSW,5.8,-,0.00,Rain,Light Rain,240,2013-02-11 16:25:00
11:33 AM,51.8,51.8,100,30.12,4.0,WSW,4.6,-,0.00,,Overcast,240,2013-02-11 16:33:00
11:40 AM,51.8,51.8,100,30.11,5.0,SW,3.5,-,0.00,,Overcast,230,2013-02-11 16:40:00
11:53 AM,52.0,51.1,97,30.12,7.0,SW,5.8,-,0.00,,Overcast,230,2013-02-11 16:53:00
12:18 PM,51.8,51.8,100,30.14,2.5,West,11.5,-,0.00,Rain,Light Rain,260,2013-02-11 17:18:00
12:22 PM,51.8,51.8,100,30.13,1.8,West,10.4,-,0.00,Rain,Light Rain,260,2013-02-11 17:22:00
12:35 PM,51.8,51.8,100,30.11,2.5,WSW,9.2,-,0.00,Rain,Light Rain,240,2013-02-11 17:35:00
12:44 PM,51.8,51.8,100,30.11,4.0,WSW,10.4,-,0.00,Rain,Light Rain,240,2013-02-11 17:44:00
12:53 PM,52.0,51.1,97,30.12,5.0,WSW,10.4,-,0.00,Rain,Light Rain,250,2013-02-11 17:53:00
1:49 PM,53.6,51.8,94,30.10,10.0,WSW,9.2,-,0.01,Rain,Light Rain,250,2013-02-11 18:49:00
1:50 PM,53.1,52.0,96,30.09,10.0,WSW,8.1,-,0.01,Rain,Light Rain,250,2013-02-11 18:50:00
2:01 PM,53.6,51.8,94,30.10,10.0,West,9.2,-,0.00,Rain,Light Rain,260,2013-02-11 19:01:00
2:11 PM,53.6,51.8,94,30.08,9.0,WSW,9.2,-,0.00,Rain,Light Rain,240,2013-02-11 19:11:00
2:27 PM,53.6,51.8,94,30.07,9.0,SW,8.1,-,0.01,Rain,Light Rain,230,2013-02-11 19:27:00
2:44 PM,53.6,51.8,94,30.10,8.0,WNW,10.4,-,0.01,Rain,Light Rain,300,2013-02-11 19:44:00
2:53 PM,54.0,52.0,93,30.09,8.0,WNW,9.2,-,0.01,Rain,Light Rain,290,2013-02-11 19:53:00
3:06 PM,53.6,51.8,94,30.10,10.0,West,10.4,-,0.01,Rain,Light Rain,270,2013-02-11 20:06:00
3:53 PM,54.0,52.0,93,30.06,10.0,WSW,5.8,-,0.01,Rain,Light Rain,240,2013-02-11 20:53:00
4:31 PM,53.6,51.8,94,30.07,9.0,WSW,9.2,-,0.00,Rain,Light Rain,240,2013-02-11 21:31:00
4:53 PM,53.1,51.1,93,30.08,10.0,West,8.1,-,0.01,Rain,Light Rain,270,2013-02-11 21:53:00
5:53 PM,53.1,51.1,93,30.08,10.0,WSW,8.1,-,0.00,,Mostly Cloudy,250,2013-02-11 22:53:00
6:53 PM,51.1,50.0,96,30.09,10.0,WSW,6.9,-,N/A,,Clear,240,2013-02-11 23:53:00
7:53 PM,50.0,48.9,96,30.07,7.0,WSW,4.6,-,N/A,,Clear,240,2013-02-12 00:53:00
8:53 PM,50.0,48.9,96,30.10,8.0,WSW,8.1,-,N/A,,Clear,240,2013-02-12 01:53:00
9:53 PM,50.0,48.0,93,30.07,8.0,West,4.6,-,N/A,,Clear,270,2013-02-12 02:53:00
10:53 PM,50.0,46.9,89,30.10,10.0,West,8.1,-,N/A,,Clear,260,2013-02-12 03:53:00
11:53 PM,48.9,45.0,86,30.10,10.0,West,6.9,-,N/A,,Mostly Cloudy,260,2013-02-12 04:53:00